[[{"header":{"parameterUnit":"m.s-1","parameterCategory":1,"la1":30.2991,"la2":30.254,"lo1":-89.0895,"lo2":-89.0444,"dy":0.0017,"dx":0.0017,"nx":28,"ny":28,"refTime":"2024-07-05T21:00:00:Z","depth":0,"parameterNumber":2,"parameterNumberName":"U-component_of_WINDS"},"data":[0,0,0,0,0,0,0,0,0,0,0,0,0,0,0,0,0,0,0,0,0,0,0,0,0,0,0,0,0,0,0,0,0,0,0,0,0,0,0,0,0,0,0,0,0,0,0,0,0,0,0,0,0,0,0,0,0,0,2.3117,2.3117,0,2.3187,2.3188,2.3189,2.3132,2.3129,2.3127,2.3125,2.3201,2.3205,2.321,0,0,0,0,0,0,0,0,0,0,0,0,0,2.2934,2.2938,2.3116,2.3117,2.3118,2.3187,2.3188,2.3189,2.3132,2.3129,2.3126,2.3124,2.32,2.3205,2.321,0,0,0,0,0,0,0,0,0,0,0,0,0,2.301,2.2939,2.3116,2.3098,2.3097,2.3187,2.3188,2.3189,2.3133,2.3129,2.3126,2.3122,2.3198,2.3204,2.3211,2.3323,0,0,2.323,2.3233,0,0,0,0,0,0,0,0,2.3006,2.3017,2.31,2.31,2.3099,2.3147,2.3152,2.3234,2.3134,2.312,2.3125,2.312,2.3186,2.3193,2.3215,2.3327,2.333,2.3231,2.3235,2.3238,2.3239,0,0,0,0,0,0,0,2.3,2.3013,2.3145,2.3101,2.31,2.3087,2.3094,2.3167,2.3173,2.312,2.3116,2.3125,2.3185,2.3209,2.3216,2.3331,2.3231,2.3236,2.324,2.3243,2.3536,2.354,0,0,0,0,0,0,2.2997,2.3009,2.3142,2.3147,2.3042,2.3093,2.3101,2.3135,2.3172,2.3174,2.3128,2.3123,2.32,2.3209,2.3219,2.3351,2.3238,2.3244,2.3247,2.3532,2.3537,2.3541,0,0,0,0,0,0,2.2993,2.3009,2.3139,2.3077,2.3092,2.31,2.3139,2.3139,2.3162,2.3178,2.3179,2.3151,2.3197,2.321,2.3297,2.3353,2.3247,2.3252,2.3528,2.3534,2.3539,2.3617,0,0,0,0,0,0,2.2988,2.3008,2.3051,2.3078,2.3096,2.3216,2.3143,2.3143,2.3173,2.3166,2.3199,2.3201,2.3195,2.3287,2.3303,2.336,2.3257,2.3523,2.353,2.3537,2.361,2.3625,2.3638,0,0,0,0,0,2.2982,2.3071,2.3053,2.307,2.3149,2.3219,2.323,2.3219,2.3177,2.322,2.323,2.32,2.3344,2.3297,2.3314,2.3373,2.3519,2.3528,2.3537,2.3603,2.3622,2.3638,0,0,0,0,0,0,2.3053,2.3075,2.3055,2.3156,2.3186,2.321,2.3264,2.324,2.3284,2.3275,2.3262,2.327,2.3361,2.3376,2.3323,2.3483,2.3425,2.3438,2.347,2.3488,2.3502,2.3496,2.3263,0,0,0,0,0,2.3079,2.3134,2.3151,2.3238,2.3254,2.3256,2.3287,2.3276,2.3307,2.332,2.3336,2.3368,2.342,2.3455,2.3504,2.3612,2.3617,2.3661,2.3675,2.3687,2.3698,2.3753,2.3772,2.357,2.357,2.357,0,0,2.3137,2.3156,2.3191,2.3253,2.3275,2.3331,2.3268,2.3331,2.3372,2.333,2.3412,2.3425,2.346,2.3557,2.3601,2.3572,2.3755,2.3698,2.3707,2.3712,2.3765,2.3784,2.3801,2.3576,2.3575,2.3574,0,0,2.3269,2.329,2.3363,2.3386,2.3419,2.3419,2.3437,2.3464,2.347,2.3552,2.352,2.357,2.3661,2.3686,2.3711,2.385,2.3824,2.3866,2.3941,2.3995,2.4011,2.4025,2.4073,2.4091,2.3877,2.3878,2.3878,0,2.3336,2.3419,2.3405,2.3469,2.3497,2.3458,2.3533,2.3556,2.3604,2.3624,2.3591,2.3702,2.3723,2.3824,2.3858,2.388,2.3899,2.3862,2.401,2.4024,2.4037,2.4082,2.4101,2.3882,2.3882,2.3881,2.3881,0,2.3499,2.3557,2.3613,2.3658,2.3692,2.3761,2.3757,2.3793,2.3779,2.3783,2.3866,2.3889,2.3941,2.3965,2.3953,2.4064,2.4045,2.4012,2.3953,2.4061,2.4104,2.4121,2.3889,2.3888,2.3886,2.3885,0,0,2.368,2.3713,2.3734,2.3753,2.3785,2.383,2.3897,2.3946,2.3976,2.4011,2.4066,2.4142,2.411,2.4138,2.4128,2.4176,2.4282,2.4137,2.4137,2.4162,2.4404,2.4429,2.4449,2.4265,2.4269,2.4271,2.4401,0,2.3812,2.3927,2.3915,2.4025,2.4077,2.404,2.4098,2.4125,2.413,2.4175,2.4181,2.4234,2.4189,2.4205,2.4251,2.426,2.4331,2.4251,2.4316,2.4319,2.4308,2.4472,2.4498,2.4619,2.4418,2.4421,2.4423,0,2.3982,2.4019,2.4134,2.4156,2.4177,2.423,2.4272,2.4316,2.4345,2.4345,2.4375,2.4356,2.4423,2.4363,2.4455,2.44,2.4426,2.4434,2.4439,2.4444,2.4377,2.448,2.4658,2.4676,2.4449,2.4447,2.4445,0,2.41,2.4179,2.4257,2.4274,2.4303,2.434,2.4353,2.4378,2.4407,2.4445,2.4463,2.4509,2.4534,2.457,2.4563,2.4521,2.4656,2.4596,2.4658,2.4658,2.4688,2.4686,2.4871,2.4707,2.4707,2.4706,2.4706,0,2.4249,2.432,2.431,2.4358,2.4436,2.4421,2.4499,2.4508,2.453,2.4578,2.4551,2.4597,2.4586,2.4633,2.4629,2.4704,2.4716,2.4718,2.4716,2.472,2.472,2.4736,2.4727,2.4711,2.471,2.4709,2.4708,0,2.4393,2.439,2.4472,2.449,2.4497,2.4553,2.4569,2.4614,2.4616,2.4678,2.4692,2.4695,2.4748,2.4745,2.4806,2.4803,2.4895,2.4884,2.4885,2.4882,2.4943,2.4937,2.5146,2.5171,2.4991,2.4993,2.4994,0,2.4488,2.4541,2.4565,2.4594,2.461,2.4659,2.4687,2.4675,2.4706,2.4741,2.4781,2.4831,2.487,2.4957,2.4965,2.501,2.4999,2.5069,2.5006,2.5008,2.4998,2.4995,2.4999,2.5081,2.5083,2.5085,2.5086,0,2.4656,2.465,2.4692,2.4733,2.4768,2.48,2.4829,2.4855,2.4845,2.4882,2.4934,2.4964,2.5024,2.5074,2.5117,2.5131,2.5107,2.5106,2.5122,2.5127,2.5124,2.5125,2.4918,2.5101,2.51,2.5099,2.5098,2.5097,2.4777,2.4822,2.4844,2.4891,2.4911,2.4938,2.4981,2.4986,2.5029,2.5076,2.5066,2.5125,2.515,2.5205,2.5223,2.5269,2.5245,2.5269,2.5275,2.5281,2.5287,2.5117,2.5277,2.5277,2.5277,2.5276,2.5276,0,2.4942,2.4954,2.4997,2.5037,2.5074,2.5046,2.5076,2.5109,2.516,2.5185,2.5223,2.5283,2.533,2.5341,2.5386,2.5421,2.5411,2.5433,2.543,2.5433,2.5307,2.5288,2.544,2.544,2.544,2.544,2.544,2.544,2.5032,2.5105,2.5102,2.5184,2.5196,2.5252,2.5271,2.5296,2.5315,2.5382,2.542,2.5426,2.5445,2.5491,2.5533,2.5535,2.5553,2.5579,2.5577,2.5459,2.5442,2.5427,2.5408,2.5583,2.5584,2.5699,2.57,2.57]},{"header":{"parameterUnit":"m.s-1","parameterCategory":1,"la1":30.2991,"la2":30.254,"lo1":-89.0895,"lo2":-89.0444,"dy":0.0017,"dx":0.0017,"nx":28,"ny":28,"refTime":"2024-07-05T21:00:00:Z","depth":0,"parameterNumber":3,"parameterNumberName":"V-component_of_WINDS"},"data":[0,0,0,0,0,0,0,0,0,0,0,0,0,0,0,0,0,0,0,0,0,0,0,0,0,0,0,0,0,0,0,0,0,0,0,0,0,0,0,0,0,0,0,0,0,0,0,0,0,0,0,0,0,0,0,0,0,0,5.6203,5.6205,0,5.6352,5.6353,5.6355,5.6324,5.6321,5.6319,5.6316,5.646,5.6466,5.6473,0,0,0,0,0,0,0,0,0,0,0,0,0,5.5884,5.589,5.6203,5.6205,5.6207,5.6352,5.6354,5.6356,5.6325,5.6321,5.6318,5.6315,5.6458,5.6466,5.6473,0,0,0,0,0,0,0,0,0,0,0,0,0,5.6027,5.5892,5.6203,5.6209,5.6211,5.6351,5.6354,5.6356,5.6325,5.6321,5.6317,5.6313,5.6456,5.6465,5.6474,5.6615,0,0,5.6503,5.6508,0,0,0,0,0,0,0,0,5.6019,5.6038,5.6206,5.6209,5.6212,5.6316,5.6294,5.6443,5.6326,5.6282,5.6316,5.6311,5.6415,5.6427,5.6464,5.6621,5.6628,5.6504,5.651,5.6514,5.6517,0,0,0,0,0,0,0,5.6009,5.6032,5.6262,5.6209,5.6212,5.6202,5.6217,5.6322,5.6369,5.6285,5.6283,5.6302,5.6415,5.6455,5.6467,5.663,5.6504,5.6512,5.6518,5.6522,5.6907,5.6911,0,0,0,0,0,0,5.5998,5.6024,5.6257,5.6266,5.6103,5.6211,5.6228,5.6286,5.6368,5.6377,5.6305,5.63,5.644,5.6456,5.6472,5.664,5.6514,5.6523,5.6528,5.6903,5.6908,5.6913,0,0,0,0,0,0,5.5991,5.6019,5.6251,5.6145,5.6173,5.6221,5.6286,5.6291,5.6331,5.6383,5.639,5.6338,5.6438,5.6459,5.6579,5.6644,5.6527,5.6536,5.6897,5.6904,5.691,5.6978,0,0,0,0,0,0,5.5982,5.6017,5.6073,5.6146,5.6179,5.6359,5.629,5.6297,5.6348,5.6343,5.6415,5.6423,5.6436,5.6565,5.6589,5.6655,5.6543,5.6891,5.69,5.6908,5.697,5.6986,5.7,0,0,0,0,0,5.5971,5.6084,5.6076,5.6104,5.6251,5.6363,5.6381,5.6396,5.6354,5.6409,5.6442,5.6421,5.6634,5.6578,5.6604,5.6675,5.6887,5.6898,5.6908,5.6963,5.6983,5.7,0,0,0,0,0,0,5.6015,5.6094,5.6085,5.6227,5.6289,5.6357,5.6427,5.6417,5.649,5.6481,5.6494,5.6511,5.6633,5.6666,5.6602,5.6814,5.6754,5.677,5.6788,5.6807,5.6821,5.681,5.6551,0,0,0,0,0,5.6041,5.6129,5.6192,5.6311,5.6342,5.638,5.6429,5.6436,5.6499,5.6524,5.6566,5.6626,5.6706,5.6758,5.6835,5.6975,5.6989,5.7036,5.7051,5.7063,5.7076,5.715,5.7171,5.6946,5.6946,5.6946,0,0,5.6096,5.615,5.6204,5.6321,5.6369,5.6456,5.6402,5.6496,5.656,5.6537,5.6654,5.6687,5.6755,5.6885,5.6945,5.6916,5.7142,5.7076,5.7086,5.7092,5.7162,5.7184,5.7203,5.6953,5.6952,5.6951,0,0,5.624,5.6292,5.6395,5.6445,5.652,5.6544,5.6569,5.664,5.6662,5.678,5.6764,5.6839,5.6978,5.7026,5.7068,5.723,5.7212,5.7255,5.7332,5.7404,5.7421,5.7437,5.7492,5.7512,5.7268,5.7268,5.7268,0,5.6298,5.6431,5.6449,5.6545,5.6595,5.6582,5.6685,5.6732,5.6827,5.6861,5.6828,5.7001,5.7046,5.7186,5.7226,5.7262,5.7288,5.7245,5.7418,5.7434,5.7449,5.7501,5.7522,5.7272,5.7272,5.7271,5.7271,0,5.6497,5.659,5.6664,5.6759,5.6818,5.6917,5.6946,5.7003,5.7005,5.7031,5.715,5.7203,5.729,5.7324,5.7325,5.7464,5.7444,5.7415,5.7355,5.7474,5.7524,5.7544,5.7279,5.7277,5.7276,5.7275,0,0,5.6672,5.6776,5.6802,5.6845,5.6926,5.6996,5.7094,5.7181,5.7228,5.7294,5.7374,5.7492,5.7465,5.7514,5.752,5.7584,5.7705,5.7546,5.7548,5.7572,5.7858,5.7878,5.7901,5.7695,5.7699,5.7702,5.7852,0,5.6821,5.6996,5.7014,5.7169,5.7253,5.7241,5.7325,5.7383,5.741,5.7483,5.7512,5.7594,5.7554,5.7583,5.7646,5.7677,5.7763,5.7667,5.7766,5.7769,5.7747,5.7928,5.7949,5.8088,5.7872,5.7875,5.7877,0,5.7019,5.7093,5.7257,5.7326,5.7362,5.7438,5.7518,5.7589,5.7653,5.7668,5.7723,5.7721,5.7818,5.7756,5.7888,5.7823,5.7864,5.7886,5.7891,5.7899,5.7829,5.7938,5.8133,5.8153,5.7908,5.7906,5.7904,0,5.7127,5.7268,5.7383,5.742,5.7504,5.7557,5.7594,5.7655,5.7705,5.7775,5.7807,5.7886,5.7929,5.7989,5.8007,5.7961,5.8137,5.8078,5.815,5.8149,5.8185,5.8182,5.8387,5.8216,5.8216,5.8216,5.8215,0,5.7291,5.7391,5.7433,5.7504,5.7614,5.7633,5.7741,5.7775,5.7829,5.7904,5.7898,5.7967,5.7989,5.8061,5.8076,5.8181,5.8201,5.8214,5.8216,5.8213,5.8211,5.8238,5.8228,5.8221,5.822,5.8219,5.8218,0,5.7429,5.7462,5.7587,5.7657,5.7676,5.7755,5.7813,5.7879,5.7906,5.8001,5.8024,5.8064,5.815,5.8175,5.8276,5.8286,5.8409,5.8403,5.8388,5.8387,5.8457,5.8449,5.8684,5.8715,5.8526,5.8528,5.853,0,5.753,5.7607,5.7686,5.7737,5.7777,5.7859,5.7911,5.7932,5.7986,5.8065,5.8121,5.8206,5.8275,5.8411,5.8447,5.8524,5.8519,5.8596,5.853,5.8524,5.8517,5.8511,5.8518,5.8608,5.861,5.8611,5.8613,0,5.7705,5.7718,5.7795,5.7878,5.7941,5.8006,5.8069,5.8111,5.814,5.8201,5.8289,5.8343,5.8447,5.853,5.8609,5.8643,5.8632,5.8634,5.8654,5.865,5.8637,5.8643,5.8419,5.8627,5.8626,5.8625,5.8624,5.8624,5.7826,5.7894,5.7959,5.8045,5.8095,5.8154,5.822,5.8255,5.833,5.8419,5.8426,5.8521,5.8581,5.8685,5.8724,5.8796,5.8773,5.8803,5.881,5.8817,5.8821,5.8628,5.8811,5.881,5.881,5.881,5.8809,0,5.7999,5.8041,5.812,5.8209,5.8276,5.8263,5.8332,5.8387,5.8472,5.853,5.8598,5.8699,5.8779,5.8823,5.8902,5.8951,5.8948,5.8971,5.8966,5.8974,5.8839,5.8812,5.8972,5.8972,5.8972,5.8972,5.8972,5.8972,5.8097,5.8209,5.8229,5.8365,5.8405,5.85,5.854,5.8593,5.864,5.8753,5.8821,5.885,5.8901,5.8984,5.9057,5.9067,5.9095,5.9121,5.9128,5.9,5.8983,5.8967,5.8942,5.9127,5.9128,5.9257,5.9258,5.9259]}]]